Erie, Minnesota
Current Conditions -  °F | °C
As of 10:55 PM on Thursday 30 Oct 2014 (Local Time) from KTVF Reporting Station
Clear Clear  
Wind Chill: 17°   Ceiling: Unl
Heat Index: 27°   Visibility: 10mi
Dew Point: 18°   Wind: 9mph
Humidity: 69%   Direction: 350°N
Pressure: 30.53"   Gusts: NA
Location:  48.0638°N, 95.6851°W
Report Text: KTVF 310355Z AUTO 35008KT 10SM CLR M03/M08 A3053 RMK AO1
Loading
Personal Weather Stations






























Interactive Weather Map
Tropical Storm Tracking
New forecast layout! Learn more

10-Day Weather Forecast

Advertisements
Track Severe Weather on mobile